カタログに戻る

FENGYUN 1C DEB

運用中PO
NORAD 31731·DEBRIS·🇨🇳 China

打ち上げ May 10, 1999 から Taiyuan Satellite Launch Center

Loading…

次のパス (今後24時間)

TLE

最新Source: Space-Track

元期: Sep 14, 2026, 04:05 UTC

1 31731U 99025CEE 26257.17082235  .00002975  00000-0  90635-3 0  9999
2 31731  99.2927 334.6592 0010203  17.3183 342.8351 14.42825834997996

AllMySatでFENGYUN 1C DEBをリアルタイム追跡

Download on the App Store